Volver al catálogo

ATLAS H R/B

ActivoLEO
NORAD 14113·ROCKET BODY·🇺🇸 United States

Lanzado Jun 9, 1983 desde Vandenberg Space Force Base

Loading…

Próximos Pases (próximas 24 horas)

TLE

ActualizadoSource: Space-Track

Época: Sep 14, 2026, 21:06 UTC

1 14113U 83056B   26257.87935519  .00000314  00000-0  50311-3 0  9992
2 14113  63.3414  68.3112 0092371 117.5229 243.5230 13.63527318358366

Sigue ATLAS H R/B en tiempo real con AllMySat

Download on the App Store